Home   Weather   Langfang   Past weeks

Flag for China Past Weather in Langfang, Hebei, China — Yesterday and Last 2 Weeks

Now
61 °F

Clear.


Feels Like: 61 °F
Forecast: 47 / 68 °F
Wind: 10 mph from North

Location: Beijing Airport

Current Time: Apr 24, 2017 at 9:05:54 pm

Latest Report: Apr 24, 2017 at 8:30 pm


Visibility: 10 mi

Pressure: 30.01 "Hg

Humidity: 11%

Dew Point: 7 °F

Location of LangfangLocation

Past Weather in Langfang — Graph

°F

Langfang Temperature Yesterday

Maximum temperature yesterday: 77 °F (at 3:30 pm)
Minimum temperature yesterday: 55 °F (at 11:00 pm)
Average temperature yesterday: 66 °F

High & Low Weather Summary for the Past Weeks

 TemperatureHumidityPressure
High90 °F (Apr 15, 2:00 pm)94% (Apr 17, 5:00 am)30.07 "Hg (Apr 17, 5:00 am)
Low36 °F (Apr 12, 5:30 am)5% (Apr 24, 2:00 pm)29.39 "Hg (Apr 17, 4:00 pm)
Average62 °F38%29.80 "Hg
* Reported Apr 9 7:00 pm — Apr 24 7:30 pm, Langfang, Weather by CustomWeather, © 2017

Note: Actual official high and low records may vary slightly from our data, if they occured in-between our weather recording intervals... More about our weather records

Advertising

Langfang Weather History for the Previous 24 Hours

Scroll right to see more
 ConditionsComfort  
Time TempWeatherWind HumidityBarometerVisibility
7:30 pm
Mon, Apr 24
63 °FClear.8 mph10%29.95 "Hg10 mi
7:00 pm64 °FSunny.10 mph9%29.95 "Hg10 mi
6:30 pm68 °FPassing clouds.13 mph8%29.92 "HgN/A
6:00 pm70 °FSunny.10 mph8%29.92 "Hg10 mi
5:30 pm72 °FSunny.15 mph7%29.92 "Hg10 mi
5:00 pm73 °FPassing clouds.13 mph7%29.89 "HgN/A
4:30 pm73 °FSunny.3 mph6%29.89 "Hg10 mi
4:00 pm73 °FPassing clouds.20 mph5%29.89 "HgN/A
3:30 pm73 °FPassing clouds.17 mph6%29.89 "HgN/A
3:00 pm73 °FSunny.22 mph6%29.89 "Hg10 mi
2:30 pm73 °FPassing clouds.20 mph6%29.89 "HgN/A
2:00 pm73 °FPassing clouds.22 mph5%29.89 "HgN/A
1:30 pm73 °FPassing clouds.22 mph6%29.89 "HgN/A
1:00 pm73 °FPassing clouds.24 mph6%29.89 "HgN/A
12:30 pm73 °FSunny.29 mph6%29.89 "Hg10 mi
11:30 am73 °FPassing clouds.22 mph8%29.89 "HgN/A
10:30 am73 °FPassing clouds.15 mph9%29.89 "HgN/A
10:00 am68 °FSunny.1 mph20%29.89 "Hg10 mi
9:30 am68 °FSunny.3 mph16%29.89 "Hg10 mi
9:00 am66 °FSunny.1 mph24%29.89 "Hg10 mi
8:30 am64 °FPassing clouds.6 mph28%29.89 "HgN/A
8:00 am63 °FSunny.8 mph32%29.89 "Hg10 mi
7:30 am61 °FSunny.8 mph45%29.89 "Hg10 mi
7:00 am57 °FPassing clouds.6 mph55%29.86 "HgN/A
6:30 am54 °FSunny.1 mph67%29.86 "Hg10 mi
6:00 am50 °FSunny.3 mph67%29.86 "Hg10 mi
5:30 am45 °FSunny.6 mph81%29.86 "Hg10 mi
4:30 am46 °FClear.3 mph82%29.83 "Hg10 mi
4:00 am48 °FClear.No wind76%29.83 "Hg10 mi
3:30 am48 °FClear.3 mph76%29.83 "Hg10 mi
3:00 am50 °FClear.3 mph71%29.83 "Hg10 mi
2:30 am48 °FClear.6 mph71%29.83 "Hg10 mi
2:00 am52 °FClear.No wind67%29.83 "Hg10 mi
1:30 am54 °FPassing clouds.3 mph63%29.80 "HgN/A
1:00 am54 °FPassing clouds.3 mph63%29.83 "HgN/A
12:30 am54 °FPassing clouds.3 mph63%29.83 "HgN/A
12:00 am55 °FPassing clouds.6 mph59%29.83 "HgN/A
11:30 pm
Sun, Apr 23
55 °FClear.6 mph55%29.83 "Hg10 mi
11:00 pm55 °FClear.3 mph55%29.83 "Hg10 mi
10:30 pm57 °FPassing clouds.6 mph55%29.83 "HgN/A
10:00 pm59 °FClear.10 mph51%29.80 "Hg10 mi
9:00 pm63 °FPassing clouds.6 mph39%29.80 "HgN/A
Weather by CustomWeather, © 2017

See weather overviewHow to use our weather pages